Regional Weather Roundup
Issued by NWS

Home | Current Version | Previous Version | Text Only | Print | Product List | Glossary On
Versions: 1 2 3 4 5 6 7 8 9 10 11 12 13 14 15 16 17 18 19 20 21 22 23 24 25 26 27 28 29 30 31 32 33 34 35 36 37 38 39 40 41 42 43 44 45 46 47 48 49 50
000
ASUS42 KTBW 221410
RWRFL
FLORIDA REGIONAL WEATHER ROUNDUP
NATIONAL WEATHER SERVICE TAMPA BAY RUSKIN FL
900 AM EST SAT NOV 22 2014

NOTE: "FAIR" INDICATES FEW OR NO CLOUDS BELOW 12,000 FEET WITH NO
SIGNIFICANT WEATHER AND/OR OBSTRUCTIONS TO VISIBILITY.


FLZ001>010-012>015-112-114-115-221500-
PANHANDLE FLORIDA

CITY           SKY/WX    TMP DP  RH WIND       PRES   REMARKS
PENSACOLA      MOSUNNY   50  41  71 NE7       30.29R
PENSACOLA NAS  MOSUNNY   56  45  66 NE8       30.28R
MILTON NAS     SUNNY     51  41  68 E8        30.30R
CRESTVIEW      SUNNY     52  44  74 NE7       30.32R
DUKE FIELD     FAIR      55  45  68 E9G17     30.29S
VALPARAISO     MOSUNNY   57  45  64 E10       30.28S
MARY ESTHER    SUNNY     56  41  56 E9        30.27S
TRI COUNTY     PTSUNNY   56  46  69 E8        30.33F
PANAMA CITY    FAIR      58  46  64 NE10      30.28F
TYNDALL AFB    MOSUNNY   54  47  76 E9        30.29S
APALACHICOLA   CLOUDY    60  49  66 E14       30.28S

STATION/POSITION SKY/WX   TEMP    WIND        PRES    WAVE   SWELL
                          AIR SEA DIR/SP/G            HT/PER HT/PER
                          (F)     (DEG/KT/KT) (MB)    (FT/S) (FT/S)
30.1N   87.6W              62 66   40/ 17/ 19 1024.1R   5/ 7   2/11
29.2N   88.2W              70 72   90/ 19/ 23 1023.4R   6/ 7
28.7N   86.0W              69 76   90/ 19/ 25 1023.0    6/ 7
PANAMA CITY BEAC           56 63   70/ 11/ 18 1025.0F
CAPE SAN BLAS    NOT AVBL
TOWER C                    61      70/ 22/ 24 1025.2S
28.5N   84.5W              65 71   70/ 16/ 17 1024.1R   4/ 6

$$
FLZ011-016>038-118-127-128-134-139-239-221500-
NORTH FLORIDA

CITY           SKY/WX    TMP DP  RH WIND       PRES   REMARKS
MARIANNA       SUNNY     54  47  77 E10G20    30.32F
TALLAHASSEE    CLOUDY    60  47  61 NE13      30.33S
PERRY          CLOUDY    58  52  81 NE7       30.33S
CROSS CITY       N/A     60  53  77 NE8       30.31R
LAKE CITY      CLOUDY    57  54  88 NE9       30.34R
GAINESVILLE    CLOUDY    61  56  83 N6        30.32R
MAYPORT NAS    CLOUDY    68  60  75 E13       30.33S
JACKSONVILLE   PTSUNNY   64  60  87 NE10      30.35R
JAX NAS        PTSUNNY   71  59  65 E12       30.33R
JAX CRAIG      LGT RAIN  67  60  78 SE7       30.34R
JAX CECIL      PTSUNNY   63  57  82 NE9       30.33R
FERNANDINA BEA CLOUDY    70  61  73 NE10      30.34S
ST AUGUSTINE   CLOUDY    71  61  70 E13       30.33R

STATION/POSITION SKY/WX   TEMP    WIND        PRES    WAVE   SWELL
                          AIR SEA DIR/SP/G            HT/PER HT/PER
                          (F)     (DEG/KT/KT) (MB)    (FT/S) (FT/S)
SHELL POINT                56      40/  7/ 12   N/A
KEATON BEACH               58      50/ 13/ 18 1026.3R
CEDAR KEY                  61      50/ 11/ 12 1025.8R
FERNANDINA                 66 60   60/  6/  9 1027.3R
30.7N   81.3W                 62                N/A     6/ 7
MAYPORT                    67 63   80/ 10/ 13   N/A
31.4N   80.9W              65 64   60/ 21/ 27 1028.5R   7/ 7
ST AUGUSTINE               68     100/ 12/ 14 1027.2R

$$
FLZ040-043>046-052-053-057-058-063-144-221500-
INTERIOR CENTRAL FLORIDA

CITY           SKY/WX    TMP DP  RH WIND       PRES   REMARKS
OCALA          MOSUNNY   64  55  72 NE5       30.29R
THE VILLAGES     N/A     66  63  88 NE7       30.18R
LEESBURG       CLOUDY    68  63  84 E8        30.28R
SANFORD        CLOUDY    68  62  81 E10       30.27S
ORLANDO EXEC   CLOUDY    69  64  84 E12       30.26S
ORLANDO INTL   CLOUDY    68  64  87 E12       30.26S
WINTER HAVEN   CLOUDY    67  64  90 E9        30.26R
LAKELAND       CLOUDY    66  64  94 E10       30.24R
BARTOW         CLOUDY    66  66 100 NE14      30.25R FOG
OKEECHOBEE     CLOUDY    73  64  73 E7        30.22S

$$
FLZ041-047-054-059-064-141-147-221500-
EAST CENTRAL FLORIDA

CITY           SKY/WX    TMP DP  RH WIND       PRES   REMARKS
ORMOND BEACH   CLOUDY    72  61  68 E12G17    30.30R
DAYTONA BEACH  CLOUDY    72  62  71 E9G22     30.30R
DELAND         PTSUNNY   70  63  78 E13       30.30R
NEW SMYRNA BEA CLOUDY    72  63  73 E13       30.30R
JFK SPACE CTR  CLOUDY    72  63  73 MISG      30.27R HAZE
CAPE CANAVERAL PTSUNNY   70  63  78 E15G22    30.23S
PATRICK AFB    PTSUNNY   72  66  83 E18       30.25S
MELBOURNE      CLOUDY    73  65  75 E15       30.24S HAZE
VERO BEACH     LGT RAIN  71  66  84 E14G24    30.24R
FT PIERCE      CLOUDY    73  68  84 E17       30.23R
STUART         CLOUDY    75  66  73 E21G30    30.23R

STATION/POSITION SKY/WX   TEMP    WIND        PRES    WAVE   SWELL
                          AIR SEA DIR/SP/G            HT/PER HT/PER
                          (F)     (DEG/KT/KT) (MB)    (FT/S) (FT/S)
28.5N   80.2W              74 75   90/ 23/ 27 1024.2S
28.9N   78.5W              72 78   70/ 25/ 31 1026.2S   9/ 7
TRIDENT PIER               72 68   70/ 10/ 14 1024.3R
28.4N   80.5W                 67                N/A     6/ 8
27.6N   80.2W                 71                N/A     8/ 8

$$
FLZ050-056-061-142-242-148-248-149-249-151-251-155-255-
160-260-221500-
WEST CENTRAL FLORIDA

CITY           SKY/WX    TMP DP  RH WIND       PRES   REMARKS
CRYSTAL RIVER  CLOUDY    63  55  77 CALM      30.27S
INVERNESS      CLOUDY    64  59  82 E5        30.27R HAZE
BROOKSVILLE    LGT RAIN  65  61  87 E12       30.25R
ZEPHYRHILLS    CLOUDY    63  61  94 NE6       30.26R
CLEARWATER     CLOUDY    65  61  87 NE9       30.22R
TAMPA INTL     CLOUDY    67  62  84 NE8       30.23R
TAMPA EXEC     CLOUDY    68  63  83 E6        30.24R
PLANT CITY     CLOUDY    70 N/A N/A E9G17     30.25S
MACDILL AFB    CLOUDY    65  65 100 E13       30.22R
PETER O KNIGHT CLOUDY    70  64  83 E9        30.22S
ST PETERSBURG  CLOUDY    65  61  87 NE10      30.20S
SARASOTA       CLOUDY    71  65  81 E16G25    30.18R
VENICE         PTSUNNY   70  64  83 E10       30.20R

STATION/POSITION SKY/WX   TEMP    WIND        PRES    WAVE   SWELL
                          AIR SEA DIR/SP/G            HT/PER HT/PER
                          (F)     (DEG/KT/KT) (MB)    (FT/S) (FT/S)
CEDAR KEY                  61      50/ 11/ 12 1025.8R
28.5N   84.5W              65 71   70/ 16/ 17 1024.1R   4/ 6
27.3N   84.3W                 76                N/A     7/ 6
CLEARWATER BEACH           66 61   70/ 12/ 17 1022.6F
MIDDLE TAMPA BAY           67     100/ 12/ 15   N/A
VENICE                     70 65   80/  9/ 12 1022.2R

$$
FLZ066-069-070-075>078-162-262-165-265-221500-
SOUTHWEST FLORIDA AND KEYS

CITY           SKY/WX    TMP DP  RH WIND       PRES   REMARKS
PUNTA GORDA    CLOUDY    75  66  73 E15G21    30.20S
FT MYERS       PTSUNNY   73  66  78 E10       30.17R
SOUTHWEST INTL PTSUNNY   73  66  78 E14G22    30.18R
NAPLES         MOSUNNY   76  68  76 E14       30.15S
MARCO ISLAND   SUNNY     75  70  83 E13       30.15S
MARATHON       PTSUNNY   79  74  84 E13G23    30.13R
KEY WEST NAS   PTSUNNY   73  71  93 E15       30.12R
KEY WEST INTL  PTSUNNY   77  77 100 E14       30.13R

STATION/POSITION SKY/WX   TEMP    WIND        PRES    WAVE   SWELL
                          AIR SEA DIR/SP/G            HT/PER HT/PER
                          (F)     (DEG/KT/KT) (MB)    (FT/S) (FT/S)
VENICE                     70 65   80/  9/ 12 1022.2R
NAPLES                     75 72   90/  9/ 14 1021.4S
26.0N   85.6W              76 78   90/ 17/ 23 1019.0R   8/ 8   3/14
DRY TORTUGAS               75      90/ 20/ 23 1019.0R
NW FL BAY                  74      80/ 12/ 14 1020.4R
SAND KEY                   78      90/ 21/ 26 1019.6R
SOMBRERO KEY               79     100/ 25/ 27 1020.5R
LONG KEY                   76 72   90/ 14/ 16 1021.4R
MOLASSES REEF              75 78   90/ 21/ 24 1020.7R

$$
FLZ067-068-071>074-168-172>174-221500-
SOUTHEAST FLORIDA

CITY           SKY/WX    TMP DP  RH WIND       PRES   REMARKS
W PALM BEACH   PTSUNNY   78  67  68 E23G33    30.20R
FT LAUDER-EXEC CLOUDY    77  68  73 E22G30    30.18R
FT LAUDERDALE  CLOUDY    79  69  71 E21G30    30.17R
POMPANO BEACH  PTSUNNY   78  69  73 E15G28    30.18R
PEMBROKE PINES CLOUDY    78  68  71 E20G25    30.19R
OPA LOCKA      CLOUDY    77  68  73 E16G25    30.18R
MIAMI          CLOUDY    78  68  71 E21       30.17R
WEST KENDALL   CLOUDY    77  69  76 E17G25    30.17R
HOMESTEAD      MOSUNNY   77  70  79 E14G21    30.17R

STATION/POSITION SKY/WX   TEMP    WIND        PRES    WAVE   SWELL
                          AIR SEA DIR/SP/G            HT/PER HT/PER
                          (F)     (DEG/KT/KT) (MB)    (FT/S) (FT/S)
PORT EVERGLADES            78      80/ 15/ 21 1021.8
VIRGINIA KEY               77 76   90/ 19/ 25 1021.9R
LAKE WORTH                 77 76   80/ 22/ 28 1022.4R
SETTLEMENT POINT           74      80/ 20/ 23 1023.9R

$$



USA.gov is the U.S. government's official web portal to all federal, state and local government web resources and services.